Flag for United Kingdom Weather past 2 weeks in Aberdeen, Scotland, United Kingdom

Now
32 °F

Clear.


Feels Like: 24 °F
Forecast: 34 / 38 °F
Wind: 9 mph from Southwest

Location: Aberdeen / Dyce

Current Time: Jan 29, 2015 at 8:23:28 AM

Latest Report: Jan 29, 2015 at 7:50 AM


Visibility: 10 mi

Pressure: 28.71 "Hg

Humidity: 75%

Dew point: 25 °F

Location of AberdeenLocation

Historic Weather in Aberdeen — Graph

°F

Aberdeen temperature yesterday

Maximum temperature yesterday: 46 °F (at 4:20 AM)
Minimum temperature yesterday: 30 °F (at 11:20 PM)
Average temperature yesterday: 39 °F

Past Weeks' High & Low Weather Summary

 TemperatureHumidityPressure
High50 °F (Jan 27, 12:20 PM)100% (Jan 18, 2:20 AM)30.18 "Hg (Jan 18, 2:20 AM)
Low23 °F (Jan 22, 6:50 AM)60% (Jan 16, 10:50 AM)28.26 "Hg (Jan 15, 2:20 PM)
Average37 °F82%29.63 "Hg
* Reported Jan 14 7:20 AM — Jan 29 7:20 AM, Aberdeen, Weather by CustomWeather, © 2014

Note: Actual official high and low records may vary slightly from our data, if they occured in-between our weather recording intervals... More about our weather records

Advertising

Aberdeen weather history for previous 24 hours

 ConditionsComfort  
Time TempWeatherWind HumidityBarometerVisibility
7:20 AM
Jan 29
32 °FClear.8 mph80%28.71 "Hg10 mi
6:50 AM32 °FPassing clouds.6 mph80%28.74 "HgN/A
6:20 AM32 °FClear.6 mph80%28.74 "Hg10 mi
5:50 AM32 °FClear.8 mph75%28.74 "Hg10 mi
5:20 AM32 °FClear.8 mph75%28.77 "Hg10 mi
4:50 AM30 °FClear.9 mph80%28.77 "Hg10 mi
4:20 AM30 °FChilly.7 mph80%28.80 "HgN/A
3:50 AM30 °FChilly.8 mph80%28.80 "HgN/A
3:20 AM30 °FClear.8 mph75%28.82 "Hg10 mi
2:50 AM30 °FChilly.10 mph75%28.82 "HgN/A
2:20 AM30 °FChilly.10 mph75%28.85 "HgN/A
1:50 AM30 °FClear.7 mph75%28.85 "Hg10 mi
1:20 AM30 °FChilly.9 mph69%28.88 "HgN/A
12:50 AM30 °FClear.8 mph75%28.88 "Hg10 mi
12:20 AM30 °FChilly.7 mph75%28.91 "HgN/A
11:50 PM
Jan 28
30 °FClear.9 mph75%28.91 "Hg10 mi
11:20 PM30 °FChilly.9 mph75%28.91 "HgN/A
10:50 PM32 °FClear.10 mph69%28.91 "Hg10 mi
10:20 PM32 °FPassing clouds.8 mph69%28.94 "HgN/A
9:50 PM32 °FPassing clouds.6 mph69%28.94 "HgN/A
9:20 PM32 °FClear.8 mph75%28.94 "Hg10 mi
8:50 PM32 °FPassing clouds.8 mph75%28.97 "HgN/A
8:20 PM34 °FClear.10 mph70%28.97 "Hg10 mi
7:50 PM34 °FPassing clouds.10 mph70%28.97 "HgN/A
7:20 PM34 °FClear.14 mph70%28.97 "Hg10 mi
6:50 PM34 °FClear.15 mph70%28.97 "Hg10 mi
6:20 PM36 °FClear.20 mph65%28.97 "Hg10 mi
5:50 PM36 °FClear.15 mph65%28.97 "Hg10 mi
5:20 PM36 °FPassing clouds.16 mph70%29.00 "HgN/A
4:50 PM36 °FClear.13 mph75%29.00 "Hg10 mi
4:20 PM36 °FPassing clouds.14 mph75%29.00 "HgN/A
3:50 PM37 °FPassing clouds.21 mph65%29.00 "HgN/A
3:20 PM37 °FScattered showers. Scattered clouds.15 mph75%29.00 "HgN/A
2:50 PM36 °FSnow showers. Scattered clouds.18 mph87%29.00 "Hg6 mi
2:20 PM39 °FScattered clouds.15 mph70%29.00 "HgN/A
1:50 PM39 °FPassing clouds.17 mph65%29.00 "HgN/A
1:20 PM39 °FPassing clouds.18 mph65%29.00 "HgN/A
12:50 PM39 °FPassing clouds.17 mph65%28.97 "HgN/A
12:20 PM37 °FPassing clouds.15 mph75%29.00 "HgN/A
11:50 AM36 °FPassing clouds.15 mph81%29.00 "HgN/A
11:20 AM39 °FScattered clouds.13 mph65%29.03 "HgN/A
10:50 AM39 °FSunny.12 mph65%29.03 "Hg10 mi
10:20 AM39 °FSunny.14 mph65%29.00 "Hg10 mi
9:50 AM39 °FSunny.12 mph70%29.03 "Hg10 mi
9:20 AM39 °FPassing clouds.13 mph70%29.03 "HgN/A
8:50 AM41 °FSunny.13 mph66%29.03 "Hg10 mi
8:20 AM41 °FPassing clouds.10 mph76%29.06 "HgN/A
Weather by CustomWeather, © 2014

See weather overviewHow to use our weather pages